Retour au catalogue

CZ-6A DEB

ActifPO
NORAD 54886·DEBRIS·🇨🇳 China

Lancé Nov 11, 2022 depuis Taiyuan Satellite Launch Center

Loading…

Prochains Passages (prochaines 24 heures)

TLE

FraisSource: Space-Track

Époque: Sep 14, 2026, 11:14 UTC

1 54886U 22151PX  26257.46809935  .00000077  00000-0  15596-3 0  9991
2 54886  98.9130  78.9358 0492755 268.9482  85.5168 13.18835627184778

Suivez CZ-6A DEB en temps réel avec AllMySat

Download on the App Store